Folgueroles (Osona)





Hora UTC 22:50
Temperatura 18.6 ºC
Humitat 82.0 %
Pressió 1011.5 hPa
Pluja 0.0 mm
Velocitat vent 0.0 km/h
Direcció vent SSW

Dades diàries 2024-06-18



Hora UTC (hivern +1h; estiu +2h)
Temperatura (ºC) Humitat (%) Pressió (hPa) Velocitat vent (km/h) Precipitació (mm)
Hora UTC Aire Humitat Pressió Vel. Dir. Vel. Max Dir. Intent. màx 5 min.
00:05 15.9 85.0 1014.6 0.0 SSW 0.0 0.0
00:10 15.9 85.0 1014.5 0.0 SSW 0.0 0.0
00:15 15.8 85.0 1014.4 0.0 SSW 0.0 0.0
00:20 15.8 85.0 1014.4 0.0 SSW 0.0 0.0
00:25 15.7 85.0 1014.4 0.0 SSW 0.0 0.0
00:30 15.6 85.0 1014.2 0.0 SSW 0.0 0.0
00:35 15.5 86.0 1014.2 0.0 SSW 0.0 0.0
00:40 15.4 86.0 1014.3 0.0 SSW 0.0 0.0
00:45 15.2 86.0 1014.2 0.0 SSW 0.0 0.0
00:50 15.2 86.0 1014.3 0.0 SSW 0.0 0.0
00:55 15.2 87.0 1014.2 0.0 SSW 0.0 0.0
01:00 15.1 87.0 1014.3 0.0 SSW 0.0 0.0
01:05 15.1 87.0 1014.2 0.0 SSW 0.0 0.0
01:10 15.0 87.0 1014.1 0.0 SSW 0.0 0.0
01:15 14.9 87.0 1014.2 0.0 SSW 0.0 0.0
01:20 14.9 87.0 1014.1 0.0 SSW 0.0 0.0
01:25 14.9 87.0 1014.1 0.0 SSW 0.0 0.0
01:30 14.9 87.0 1014.1 0.0 SSW 0.0 0.0
01:35 14.9 87.0 1014.0 0.0 SSW 0.0 0.0
01:40 14.8 88.0 1014.1 0.0 SSW 0.0 0.0
01:45 14.8 87.0 1014.1 0.0 SSW 0.0 0.0
01:50 14.8 88.0 1014.0 0.0 SSW 0.0 0.0
01:55 14.8 88.0 1014.0 0.0 SSW 0.0 0.0
02:00 14.7 88.0 1014.0 0.0 SSW 0.0 0.0
02:05 14.7 88.0 1014.0 0.0 SSW 0.0 0.0
02:10 14.7 88.0 1013.8 0.0 SSW 0.0 0.0
02:15 14.6 88.0 1013.7 0.0 SSW 0.0 0.0
02:20 14.6 88.0 1013.7 0.0 SSW 0.0 0.0
02:25 14.6 88.0 1013.5 0.0 SSW 0.0 0.0
02:30 14.5 88.0 1013.5 0.0 SSW 0.0 0.0
02:35 14.4 88.0 1013.5 0.0 SSW 0.0 0.0
02:40 14.3 89.0 1013.4 0.0 SSW 0.0 0.0
02:45 14.3 89.0 1013.4 0.0 SSW 0.0 0.0
02:50 14.2 89.0 1013.4 0.0 SSW 0.0 0.0
02:55 14.2 89.0 1013.3 0.0 SSW 0.0 0.0
03:00 14.1 89.0 1013.4 0.0 SSW 0.0 0.0
03:05 14.1 89.0 1013.4 0.0 SSW 0.0 0.0
03:10 14.0 89.0 1013.4 0.0 SSW 0.0 0.0
03:15 13.9 89.0 1013.3 0.0 SSW 0.0 0.0
03:20 13.9 90.0 1013.3 0.0 SSW 0.0 0.0
03:25 13.8 90.0 1013.2 0.0 SSW 0.0 0.0
03:30 13.8 89.0 1013.3 0.0 SSW 0.0 0.0
03:35 13.7 90.0 1013.3 0.0 SSW 0.0 0.0
03:40 13.6 90.0 1013.3 0.0 SSW 0.0 0.0
03:45 13.6 90.0 1013.2 0.0 SSW 0.0 0.0
03:50 13.6 90.0 1013.2 0.0 SSW 0.0 0.0
03:55 13.5 90.0 1013.2 0.0 SSW 0.0 0.0
04:00 13.6 90.0 1013.2 0.0 SSW 0.0 0.0
04:05 13.6 91.0 1013.2 0.0 SSW 0.0 0.0
04:10 13.6 91.0 1013.1 0.0 SSW 0.0 0.0
04:15 13.6 91.0 1013.1 0.0 SSW 0.0 0.0
04:20 13.6 91.0 1013.1 0.0 SSW 0.0 0.0
04:25 13.6 91.0 1013.1 0.0 SSW 0.0 0.0
04:30 13.4 91.0 1013.1 0.0 SSW 0.0 0.0
04:35 13.4 91.0 1013.1 0.0 SSW 0.0 0.0
04:40 13.3 91.0 1013.0 0.0 SSW 0.0 0.0
04:45 13.3 91.0 1013.0 0.0 SSW 0.0 0.0
04:50 13.3 91.0 1013.0 0.0 SSW 0.0 0.0
04:55 13.4 92.0 1013.0 0.0 SSW 0.0 0.0
05:00 13.6 92.0 1013.0 0.0 SSW 0.0 0.0
05:05 13.8 92.0 1013.0 0.0 SSW 0.0 0.0
05:10 14.1 93.0 1013.0 0.0 SSW 0.0 0.0
05:15 14.3 92.0 1013.0 0.0 SSW 0.0 0.0
05:20 14.6 92.0 1013.0 0.0 N 0.0 0.0
05:25 14.8 91.0 1013.1 0.0 SSW 0.0 0.0
05:30 15.1 91.0 1013.2 0.0 SSW 0.0 0.0
05:35 15.4 90.0 1013.3 0.0 SSW 0.0 0.0
05:40 15.9 89.0 1013.3 0.0 SSW 0.0 0.0
05:45 16.4 89.0 1013.3 0.0 SSW 0.0 0.0
05:50 16.8 87.0 1013.4 0.0 SSW 0.0 0.0
05:55 17.1 85.0 1013.4 0.0 SSW 0.0 0.0
06:00 17.4 84.0 1013.4 0.0 SSW 0.0 0.0
06:05 17.7 84.0 1013.5 0.0 SSW 0.0 0.0
06:10 17.9 83.0 1013.5 0.0 SSW 0.0 0.0
06:15 18.1 82.0 1013.6 0.0 SSW 0.0 0.0
06:20 18.1 81.0 1013.5 0.0 SSW 0.0 0.0
06:25 18.1 82.0 1013.6 0.0 W 0.0 0.0
06:30 17.9 82.0 1013.7 0.0 W 0.0 0.0
06:35 17.8 82.0 1013.9 0.0 W 0.0 0.0
06:40 17.8 84.0 1013.7 0.0 W 0.0 0.0
06:45 17.8 84.0 1013.9 0.0 W 0.0 0.0
06:50 17.7 83.0 1013.7 0.0 NW 0.0 0.0
06:55 17.7 83.0 1013.6 3.2 N 6.4 0.0
07:00 17.7 82.0 1013.7 3.2 N 6.4 0.0
07:05 17.8 82.0 1013.7 0.0 N 4.8 0.0
07:10 17.9 83.0 1013.6 3.2 N 6.4 0.0
07:15 18.0 82.0 1013.7 0.0 N 6.4 0.0
07:20 18.1 82.0 1013.6 1.6 N 6.4 0.0
07:25 18.1 81.0 1013.6 0.0 N 4.8 0.0
07:30 18.2 81.0 1013.6 0.0 N 4.8 0.0
07:35 18.2 81.0 1013.5 0.0 N 1.6 0.0
07:40 18.2 81.0 1013.5 0.0 N 1.6 0.0
07:45 18.3 82.0 1013.4 0.0 N 0.0 0.0
07:50 18.4 82.0 1013.4 1.6 N 6.4 0.0
07:55 18.6 81.0 1013.4 0.0 N 6.4 0.0
08:00 18.8 81.0 1013.3 0.0 N 1.6 0.0
08:05 18.9 80.0 1013.2 0.0 N 0.0 0.0
08:10 19.2 80.0 1013.0 3.2 N 6.4 0.0
08:15 19.4 80.0 1013.1 4.8 N 6.4 0.0
08:20 19.6 79.0 1013.1 1.6 NNE 4.8 0.0
08:25 19.9 79.0 1013.1 1.6 N 4.8 0.0
08:30 20.2 78.0 1013.0 0.0 N 4.8 0.0
08:35 20.6 77.0 1013.0 0.0 N 6.4 0.0
08:40 20.9 76.0 1012.8 0.0 N 4.8 0.0
08:45 21.3 76.0 1012.8 0.0 N 0.0 0.0
08:50 21.7 74.0 1012.8 0.0 N 0.0 0.0
08:55 22.3 74.0 1012.7 0.0 N 0.0 0.0
09:00 22.7 73.0 1012.8 0.0 N 0.0 0.0
09:05 23.1 66.0 1012.7 1.6 NNW 12.9 0.0
09:10 23.7 63.0 1012.6 3.2 N 12.9 0.0
09:15 24.2 62.0 1012.6 6.4 NE 9.7 0.0
09:20 24.6 61.0 1012.7 4.8 ENE 12.9 0.0
09:25 24.9 59.0 1012.7 3.2 ENE 12.9 0.0
09:30 25.1 59.0 1012.6 6.4 ENE 12.9 0.0
09:35 25.3 59.0 1012.6 3.2 S 9.7 0.0
09:40 25.6 59.0 1012.6 0.0 ENE 9.7 0.0
09:45 25.8 61.0 1012.7 0.0 N 16.1 0.0
09:50 25.9 58.0 1012.7 12.9 ENE 16.1 0.0
09:55 26.1 55.0 1012.6 3.2 ENE 19.3 0.0
10:00 26.2 57.0 1012.7 6.4 NE 19.3 0.0
10:05 26.3 55.0 1012.7 4.8 SSW 14.5 0.0
10:10 26.6 57.0 1012.7 3.2 SW 9.7 0.0
10:15 26.8 56.0 1012.7 9.7 SSW 11.3 0.0
10:20 26.8 57.0 1012.8 6.4 SSW 14.5 0.0
10:25 26.8 58.0 1012.7 3.2 SSW 19.3 0.0
10:30 26.8 57.0 1012.8 6.4 SSW 19.3 0.0
10:35 26.9 57.0 1012.8 8.0 SSW 17.7 0.0
10:40 26.9 56.0 1012.7 1.6 S 12.9 0.0
10:45 26.9 56.0 1012.6 4.8 NE 14.5 0.0
10:50 26.9 56.0 1012.6 3.2 S 14.5 0.0
10:55 27.1 57.0 1012.6 8.0 ENE 20.9 0.0
11:00 26.8 56.0 1012.7 8.0 ENE 24.1 0.0
11:05 26.8 57.0 1012.6 14.5 NE 24.1 0.0
11:10 26.7 56.0 1012.6 6.4 E 20.9 0.0
11:15 26.7 56.0 1012.5 11.3 E 20.9 0.0
11:20 26.8 56.0 1012.5 14.5 ENE 17.7 0.0
11:25 26.9 55.0 1012.6 12.9 ENE 19.3 0.0
11:30 26.8 54.0 1012.4 11.3 NE 19.3 0.0
11:35 26.9 55.0 1012.4 3.2 ENE 17.7 0.0
11:40 27.1 54.0 1012.4 4.8 WSW 20.9 0.0
11:45 27.1 54.0 1012.4 8.0 NE 20.9 0.0
11:50 27.2 54.0 1012.3 3.2 E 19.3 0.0
11:55 27.4 52.0 1012.3 4.8 SE 16.1 0.0
12:00 27.5 53.0 1012.1 4.8 ENE 9.7 0.0
12:05 27.6 51.0 1012.2 6.4 ENE 17.7 0.0
12:10 27.6 54.0 1012.1 8.0 ENE 17.7 0.0
12:15 27.7 52.0 1012.1 9.7 ENE 16.1 0.0
12:20 27.8 52.0 1011.9 3.2 ENE 17.7 0.0
12:25 27.7 53.0 1011.9 6.4 ENE 17.7 0.0
12:30 27.9 52.0 1011.8 9.7 NE 17.7 0.0
12:35 28.1 54.0 1011.9 1.6 SE 14.5 0.0
12:40 28.4 52.0 1011.8 3.2 SSW 14.5 0.0
12:45 28.4 51.0 1012.0 3.2 SSW 14.5 0.0
12:50 28.6 51.0 1011.9 1.6 S 12.9 0.0
12:55 28.6 51.0 1011.9 6.4 SSW 11.3 0.0
13:00 28.5 50.0 1011.9 1.6 SW 11.3 0.0
13:05 28.5 52.0 1011.9 4.8 E 12.9 0.0
13:10 28.6 53.0 1012.0 4.8 SSW 12.9 0.0
13:15 28.7 51.0 1011.8 1.6 SE 9.7 0.0
13:20 28.7 52.0 1011.8 4.8 S 16.1 0.0
13:25 28.7 51.0 1011.8 3.2 ENE 16.1 0.0
13:30 28.8 53.0 1011.8 8.0 ENE 12.9 0.0
13:35 28.9 52.0 1011.7 8.0 S 12.9 0.0
13:40 28.8 52.0 1011.7 4.8 E 14.5 0.0
13:45 28.6 54.0 1011.7 11.3 E 17.7 0.0
13:50 28.5 52.0 1011.7 4.8 ENE 19.3 0.0
13:55 28.5 52.0 1011.6 11.3 ENE 19.3 0.0
14:00 28.5 53.0 1011.5 3.2 ENE 17.7 0.0
14:05 28.6 54.0 1011.4 3.2 SW 17.7 0.0
14:10 28.7 53.0 1011.3 3.2 ENE 17.7 0.0
14:15 28.9 55.0 1011.2 0.0 ENE 12.9 0.0
14:20 29.1 52.0 1011.1 6.4 ESE 14.5 0.0
14:25 28.9 53.0 1011.0 9.7 ENE 19.3 0.0
14:30 28.7 53.0 1011.0 14.5 ENE 24.1 0.0
14:35 28.8 53.0 1010.9 11.3 ENE 24.1 0.0
14:40 28.9 54.0 1010.7 4.8 ENE 22.5 0.0
14:45 29.0 52.0 1010.7 12.9 ENE 19.3 0.0
14:50 28.9 52.0 1010.7 14.5 ENE 19.3 0.0
14:55 29.1 53.0 1010.7 1.6 SSW 19.3 0.0
15:00 29.2 52.0 1010.6 8.0 NE 11.3 0.0
15:05 29.0 52.0 1010.5 8.0 ENE 14.5 0.0
15:10 29.1 53.0 1010.5 4.8 SSW 14.5 0.0
15:15 29.2 52.0 1010.4 3.2 ESE 12.9 0.0
15:20 29.2 53.0 1010.3 4.8 S 12.9 0.0
15:25 29.1 52.0 1010.3 8.0 ENE 12.9 0.0
15:30 28.9 54.0 1010.2 12.9 ENE 14.5 0.0
15:35 29.0 54.0 1010.1 3.2 S 14.5 0.0
15:40 29.1 53.0 1010.2 0.0 S 9.7 0.0
15:45 29.0 53.0 1010.0 6.4 ENE 17.7 0.0
15:50 29.0 54.0 1010.1 3.2 SSW 17.7 0.0
15:55 29.0 53.0 1010.1 9.7 NE 14.5 0.0
16:00 28.9 54.0 1009.9 6.4 ENE 14.5 0.0
16:05 28.8 54.0 1010.1 8.0 ENE 19.3 0.0
16:10 28.6 56.0 1009.8 4.8 NE 19.3 0.0
16:15 28.6 56.0 1009.9 3.2 E 17.7 0.0
16:20 28.4 56.0 1009.7 4.8 ENE 17.7 0.0
16:25 28.3 56.0 1009.8 0.0 ENE 16.1 0.0
16:30 28.3 57.0 1009.8 3.2 S 12.9 0.0
16:35 28.3 55.0 1009.8 1.6 SSW 8.0 0.0
16:40 28.2 56.0 1009.8 6.4 E 9.7 0.0
16:45 28.2 56.0 1009.7 1.6 SSW 9.7 0.0
16:50 28.1 57.0 1009.8 12.9 ENE 12.9 0.0
16:55 28.0 57.0 1009.8 4.8 SW 14.5 0.0
17:00 27.9 57.0 1009.7 0.0 SSW 12.9 0.0
17:05 27.8 58.0 1009.5 1.6 ENE 8.0 0.0
17:10 27.8 59.0 1009.5 0.0 S 6.4 0.0
17:15 27.7 59.0 1009.6 3.2 SSW 9.7 0.0
17:20 27.6 59.0 1009.6 0.0 SSW 9.7 0.0
17:25 27.5 60.0 1009.7 0.0 SSW 9.7 0.0
17:30 27.4 61.0 1009.6 4.8 SSW 9.7 0.0
17:35 27.4 61.0 1009.6 4.8 SSW 8.0 0.0
17:40 27.3 61.0 1009.6 1.6 SSW 4.8 0.0
17:45 27.2 62.0 1009.6 3.2 SSW 8.0 0.0
17:50 27.2 62.0 1009.6 0.0 SSW 8.0 0.0
17:55 27.0 62.0 1009.6 1.6 ESE 8.0 0.0
18:00 26.9 62.0 1009.5 1.6 S 8.0 0.0
18:05 26.8 63.0 1009.5 3.2 S 4.8 0.0
18:10 26.7 63.0 1009.5 0.0 NE 6.4 0.0
18:15 26.6 63.0 1009.6 0.0 S 6.4 0.0
18:20 26.5 63.0 1009.5 1.6 SSW 6.4 0.0
18:25 26.4 64.0 1009.5 3.2 SSW 6.4 0.0
18:30 26.2 65.0 1009.6 1.6 SSW 9.7 0.0
18:35 26.0 66.0 1009.4 4.8 SSW 9.7 0.0
18:40 25.8 66.0 1009.5 0.0 SSW 8.0 0.0
18:45 25.6 67.0 1009.4 0.0 SW 4.8 0.0
18:50 25.4 67.0 1009.2 0.0 SW 4.8 0.0
18:55 25.3 68.0 1009.2 3.2 SSW 4.8 0.0
19:00 25.2 67.0 1009.3 0.0 SSW 4.8 0.0
19:05 25.1 67.0 1009.2 3.2 SSW 4.8 0.0
19:10 24.9 68.0 1009.4 0.0 SSW 6.4 0.0
19:15 24.7 69.0 1009.4 0.0 SSW 8.0 0.0
19:20 24.6 69.0 1009.4 0.0 SSW 4.8 0.0
19:25 24.4 70.0 1009.5 0.0 SSW 0.0 0.0
19:30 24.3 70.0 1009.4 0.0 SSW 0.0 0.0
19:35 24.0 71.0 1009.6 0.0 SSW 0.0 0.0
19:40 23.8 71.0 1009.6 0.0 SSW 0.0 0.0
19:45 23.6 72.0 1009.7 0.0 SSW 0.0 0.0
19:50 23.3 72.0 1009.8 0.0 SSW 0.0 0.0
19:55 23.1 73.0 1009.9 0.0 SSW 0.0 0.0
20:00 22.8 74.0 1010.0 0.0 SSW 0.0 0.0
20:05 22.7 74.0 1010.1 0.0 SSW 0.0 0.0
20:10 22.7 74.0 1010.2 0.0 SSW 0.0 0.0
20:15 22.7 74.0 1010.4 0.0 SSW 0.0 0.0
20:20 22.7 75.0 1010.4 0.0 SSW 0.0 0.0
20:25 22.6 75.0 1010.6 0.0 SSW 0.0 0.0
20:30 22.3 75.0 1010.6 0.0 SSW 0.0 0.0
20:35 22.0 76.0 1010.6 0.0 SSW 0.0 0.0
20:40 21.7 77.0 1010.6 0.0 SSW 0.0 0.0
20:45 21.5 77.0 1010.7 0.0 SSW 0.0 0.0
20:50 21.4 78.0 1010.6 0.0 SSW 0.0 0.0
20:55 21.3 78.0 1010.8 0.0 SSW 0.0 0.0
21:00 21.1 78.0 1010.9 0.0 SSW 0.0 0.0
21:05 20.9 78.0 1010.9 0.0 SSW 0.0 0.0
21:10 20.8 78.0 1011.0 0.0 SSW 0.0 0.0
21:15 20.8 79.0 1011.1 0.0 SSW 0.0 0.0
21:20 20.7 79.0 1011.1 0.0 SSW 0.0 0.0
21:25 20.6 79.0 1011.2 0.0 SSW 0.0 0.0
21:30 20.4 79.0 1011.2 0.0 SSW 0.0 0.0
21:35 20.3 79.0 1011.2 0.0 SSW 0.0 0.0
21:40 20.2 79.0 1011.3 0.0 SSW 0.0 0.0
21:45 20.1 79.0 1011.3 0.0 SSW 0.0 0.0
21:50 19.9 80.0 1011.3 0.0 SSW 0.0 0.0
21:55 19.8 80.0 1011.3 0.0 SSW 0.0 0.0
22:00 19.8 80.0 1011.2 0.0 SSW 0.0 0.0
22:05 19.6 80.0 1011.3 0.0 SSW 0.0 0.0
22:10 19.4 80.0 1011.2 0.0 SSW 0.0 0.0
22:15 19.3 81.0 1011.4 0.0 SSW 0.0 0.0
22:20 19.1 81.0 1011.4 0.0 SSW 0.0 0.0
22:25 18.9 81.0 1011.5 0.0 SSW 0.0 0.0
22:30 18.8 82.0 1011.5 0.0 SSW 0.0 0.0
22:35 18.8 82.0 1011.5 0.0 SSW 0.0 0.0
22:40 18.7 82.0 1011.5 0.0 SSW 0.0 0.0
22:45 18.6 82.0 1011.4 0.0 SSW 0.0 0.0
22:50 18.6 82.0 1011.5 0.0 SSW 0.0 0.0
Màxima 29.2 93.0 1014.6 14.5 ENE 24.1 0.0
Mínima 13.3 50.0 1009.2
Total 0.0